Columbus, NE

7:18 PM CST on January 22, 2018 (GMT -0600)
Columbus Municipal

Weather History for KOLU - November, 2013

Change the Weather History Date:

Wednesday, November 6, 2013

  Actual Average Record
Temperature  
Mean Temperature 35 °F -  
Max Temperature 42 °F 51 °F 89 °F (1997)
Min Temperature 28 °F 29 °F 4 °F (1991)
Degree Days  
Heating Degree Days 30    
Moisture  
Dew Point 27 °F    
Average Humidity 75    
Maximum Humidity 86    
Minimum Humidity 61    
Precipitation  
Precipitation 0.01 in - - ()
Sea Level Pressure  
Sea Level Pressure 30.20 in    
Wind  
Wind Speed 11 mph (West)    
Max Wind Speed 18 mph    
Max Gust Speed 25 mph    
Visibility 10 miles    
Events      
Averages and records for this station are not official NWS values.
T = Trace of Precipitation, MM = Missing Value Source: NWS Daily Summary

Daily Weather History Graph

Daily Weather History Graph

Search for Another Location

Airport or City:

Trip Planner

Search our weather history database for the weather conditions in past years. The results will help you decide how hot, cold, wet, or windy it might be!

Date:

Astronomy

Nov. 06, 2013 Rise Set
Actual Time 7:07 AM CST 5:18 PM CST
Civil Twilight 6:38 AM CST 5:47 PM CST
Nautical Twilight 6:05 AM CST 6:20 PM CST
Astronomical Twilight 5:32 AM CST 6:52 PM CST
Moon 10:24 AM CST (11/6) 8:22 PM CST (11/6)
Length of Visible Light 11h 08m
Length of Day
10h 10m
Waxing Crescent, 14% of the Moon is Illuminated
Nov 6
Waxing Crescent
Nov 9
First Quarter
Nov 17
Full
Nov 25
Last Quarter
Dec 2
New

Hourly Weather History & Observations

Time (CST) Temp. Windchill Dew Point Humidity Pressure Visibility Wind Dir Wind Speed Gust Speed Precip Events Conditions
12:15 AM 33.8 °F 22.8 °F 28.4 °F 81% 30.11 in 10.0 mi NW 18.4 mph 23.0 mph N/A   Overcast
12:35 AM 33.8 °F 22.8 °F 26.6 °F 75% 30.11 in 10.0 mi NW 18.4 mph 25.3 mph N/A   Overcast
12:55 AM 33.8 °F 23.2 °F 26.6 °F 75% 30.12 in 10.0 mi NW 17.3 mph - N/A   Overcast
1:15 AM 33.8 °F 23.9 °F 26.6 °F 75% 30.12 in 10.0 mi NNW 15.0 mph 23.0 mph N/A   Overcast
1:35 AM 33.8 °F 24.3 °F 26.6 °F 75% 30.11 in 9.0 mi NNW 13.8 mph - N/A   Overcast
1:55 AM 33.8 °F 24.8 °F 26.6 °F 75% 30.13 in 10.0 mi NW 12.7 mph - N/A   Overcast
2:15 AM 33.8 °F 25.3 °F 26.6 °F 75% 30.13 in 10.0 mi NW 11.5 mph - N/A   Overcast
2:35 AM 33.8 °F 24.8 °F 26.6 °F 75% 30.13 in 10.0 mi NW 12.7 mph - N/A   Overcast
2:55 AM 33.8 °F 24.8 °F 26.6 °F 75% 30.13 in 10.0 mi NW 12.7 mph - N/A   Overcast
3:15 AM 33.8 °F 25.3 °F 26.6 °F 75% 30.13 in 10.0 mi NW 11.5 mph - N/A   Overcast
3:35 AM 33.8 °F 25.3 °F 26.6 °F 75% 30.14 in 10.0 mi NW 11.5 mph - N/A   Overcast
3:55 AM 33.8 °F 24.8 °F 26.6 °F 75% 30.14 in 10.0 mi NW 12.7 mph - N/A   Overcast
4:15 AM 32.0 °F 22.5 °F 26.6 °F 80% 30.15 in 10.0 mi WNW 12.7 mph - N/A   Overcast
4:35 AM 32.0 °F 22.5 °F 26.6 °F 80% 30.15 in 10.0 mi WNW 12.7 mph - N/A   Overcast
4:55 AM 32.0 °F 23.0 °F 26.6 °F 80% 30.16 in 10.0 mi WNW 11.5 mph - N/A   Overcast
5:15 AM 32.0 °F 23.0 °F 26.6 °F 80% 30.17 in 10.0 mi NW 11.5 mph - N/A   Overcast
5:35 AM 32.0 °F 23.6 °F 26.6 °F 80% 30.18 in 10.0 mi WNW 10.4 mph - N/A   Overcast
5:55 AM 32.0 °F 23.0 °F 26.6 °F 80% 30.17 in 10.0 mi NW 11.5 mph - N/A   Overcast
6:15 AM 32.0 °F 23.6 °F 26.6 °F 80% 30.18 in 10.0 mi NW 10.4 mph - N/A   Overcast
6:35 AM 32.0 °F 23.6 °F 26.6 °F 80% 30.18 in 10.0 mi NW 10.4 mph - N/A   Overcast
6:55 AM 32.0 °F 24.2 °F 26.6 °F 80% 30.18 in 10.0 mi WNW 9.2 mph - N/A   Overcast
7:15 AM 32.0 °F 24.2 °F 26.6 °F 80% 30.19 in 10.0 mi NW 9.2 mph - N/A   Overcast
7:35 AM 32.0 °F 25.6 °F 26.6 °F 80% 30.20 in 10.0 mi WNW 6.9 mph - N/A   Overcast
7:55 AM 33.8 °F 27.0 °F 26.6 °F 75% 30.21 in 10.0 mi WNW 8.1 mph - N/A   Overcast
8:15 AM 33.8 °F 27.0 °F 26.6 °F 75% 30.22 in 10.0 mi West 8.1 mph - N/A   Overcast
8:35 AM 33.8 °F 27.0 °F 26.6 °F 75% 30.23 in 10.0 mi West 8.1 mph - N/A   Overcast
8:55 AM 33.8 °F 27.0 °F 26.6 °F 75% 30.23 in 10.0 mi West 8.1 mph - N/A   Overcast
9:15 AM 33.8 °F 27.0 °F 26.6 °F 75% 30.23 in 10.0 mi WNW 8.1 mph - N/A   Overcast
9:35 AM 33.8 °F 26.4 °F 28.4 °F 81% 30.24 in 10.0 mi West 9.2 mph - N/A   Overcast
9:55 AM 35.6 °F 28.6 °F 28.4 °F 75% 30.24 in 10.0 mi West 9.2 mph - N/A   Overcast
10:15 AM 35.6 °F 28.6 °F 28.4 °F 75% 30.24 in 10.0 mi West 9.2 mph - N/A   Overcast
10:35 AM 35.6 °F 28.6 °F 28.4 °F 75% 30.25 in 10.0 mi West 9.2 mph - N/A   Overcast
10:55 AM 37.4 °F 30.8 °F 28.4 °F 70% 30.25 in 10.0 mi West 9.2 mph - N/A   Overcast
11:15 AM 37.4 °F 30.8 °F 28.4 °F 70% 30.25 in 10.0 mi West 9.2 mph - N/A   Overcast
11:35 AM 37.4 °F 31.4 °F 28.4 °F 70% 30.24 in 10.0 mi WNW 8.1 mph - N/A   Mostly Cloudy
11:55 AM 37.4 °F 32.1 °F 28.4 °F 70% 30.23 in 10.0 mi WNW 6.9 mph - N/A   Mostly Cloudy
12:15 PM 42.8 °F 38.6 °F 30.2 °F 61% 30.23 in 10.0 mi West 6.9 mph - N/A   Mostly Cloudy
12:35 PM 41.0 °F 35.8 °F 28.4 °F 61% 30.22 in 10.0 mi SW 8.1 mph - N/A   Mostly Cloudy
12:55 PM 39.2 °F 34.2 °F 28.4 °F 65% 30.22 in 10.0 mi SW 6.9 mph - N/A   Mostly Cloudy
1:15 PM 39.2 °F - 30.2 °F 70% 30.22 in 10.0 mi Calm Calm - N/A   Overcast
1:35 PM 39.2 °F 33.6 °F 28.4 °F 65% 30.22 in 10.0 mi West 8.1 mph - N/A   Overcast
1:55 PM 41.0 °F 34.7 °F 28.4 °F 61% 30.22 in 10.0 mi SW 10.4 mph - N/A   Overcast
2:15 PM 41.0 °F 34.7 °F 30.2 °F 65% 30.22 in 10.0 mi SW 10.4 mph - N/A   Overcast
2:35 PM 39.2 °F 33.0 °F 28.4 °F 65% 30.22 in 10.0 mi SSW 9.2 mph - N/A   Overcast
2:55 PM 39.2 °F 32.5 °F 28.4 °F 65% 30.22 in 10.0 mi West 10.4 mph - N/A   Overcast
3:15 PM 39.2 °F 34.2 °F 28.4 °F 65% 30.22 in 10.0 mi WSW 6.9 mph - N/A   Overcast
3:35 PM 37.4 °F 30.3 °F 28.4 °F 70% 30.22 in 10.0 mi SW 10.4 mph - N/A   Overcast
3:55 PM 37.4 °F 32.1 °F 28.4 °F 70% 30.22 in 10.0 mi SSW 6.9 mph - N/A   Mostly Cloudy
4:15 PM 37.4 °F 32.1 °F 28.4 °F 70% 30.22 in 10.0 mi SW 6.9 mph - N/A   Overcast
4:35 PM 37.4 °F 31.4 °F 26.6 °F 65% 30.22 in 10.0 mi South 8.1 mph - N/A   Mostly Cloudy
4:55 PM 37.4 °F 31.4 °F 28.4 °F 70% 30.22 in 10.0 mi South 8.1 mph - N/A   Partly Cloudy
5:15 PM 35.6 °F 31.7 °F 26.6 °F 70% 30.22 in 10.0 mi South 4.6 mph - N/A   Clear
5:35 PM 35.6 °F 31.7 °F 26.6 °F 70% 30.22 in 10.0 mi SSE 4.6 mph - N/A   Clear
5:55 PM 33.8 °F - 26.6 °F 75% 30.22 in 10.0 mi Calm Calm - N/A   Clear
6:15 PM 33.8 °F 29.6 °F 26.6 °F 75% 30.22 in 10.0 mi SSE 4.6 mph - N/A   Clear
6:35 PM 33.8 °F 30.8 °F 26.6 °F 75% 30.23 in 10.0 mi SSE 3.5 mph - N/A   Clear
6:55 PM 33.8 °F 30.8 °F 26.6 °F 75% 30.23 in 10.0 mi SSE 3.5 mph - N/A   Clear
7:15 PM 32.0 °F 27.5 °F 24.8 °F 75% 30.23 in 10.0 mi SSE 4.6 mph - N/A   Clear
7:35 PM 30.2 °F 25.4 °F 26.6 °F 86% 30.23 in 10.0 mi SSE 4.6 mph - N/A   Clear
7:55 PM 30.2 °F 26.7 °F 24.8 °F 80% 30.23 in 10.0 mi SSE 3.5 mph - N/A   Clear
8:15 PM 32.0 °F 26.4 °F 26.6 °F 80% 30.23 in 10.0 mi South 5.8 mph - N/A   Clear
8:35 PM 33.8 °F 29.6 °F 26.6 °F 75% 30.23 in 10.0 mi South 4.6 mph - N/A   Clear
8:55 PM 32.0 °F - 26.6 °F 80% 30.23 in 10.0 mi Calm Calm - N/A   Clear
9:15 PM 32.0 °F - 26.6 °F 80% 30.24 in 10.0 mi Calm Calm - N/A   Clear
9:35 PM 32.0 °F - 26.6 °F 80% 30.25 in 10.0 mi Calm Calm - N/A   Clear
9:55 PM 28.4 °F - 24.8 °F 86% 30.25 in 10.0 mi Calm Calm - N/A   Clear
10:15 PM 28.4 °F - 24.8 °F 86% 30.25 in 10.0 mi Calm Calm - N/A   Clear
10:35 PM 28.4 °F - 24.8 °F 86% 30.25 in 9.0 mi Calm Calm - N/A   Clear
10:55 PM 28.4 °F 24.6 °F 24.8 °F 86% 30.25 in 9.0 mi West 3.5 mph - N/A   Clear
11:15 PM 30.2 °F 26.7 °F 24.8 °F 80% 30.25 in 10.0 mi WSW 3.5 mph - N/A   Clear
11:35 PM 30.2 °F 26.7 °F 26.6 °F 86% 30.26 in 10.0 mi West 3.5 mph - N/A   Clear
11:55 PM 28.4 °F 24.6 °F 24.8 °F 86% 30.26 in 10.0 mi West 3.5 mph - N/A   Clear